Location: Piotrkow Trybunalski
(51.4000°N, 19.6830°E)
Time: 05:42:02
(UTC+01:00)

A-11 Canister half - Visible Passes

Search period start: 08 February 2023 00:00
Search period end: 18 February 2023 00:00
Orbit: 1514 x 1686 km, 47.2° (Epoch: 07 February)

Date Brightness Start Highest point End Pass type
(mag) Time Alt. Az. Time Alt. Az. Time Alt. Az.
11 Feb 11.7 06:25:40 10° SSE 06:30:18 14° SE 06:34:53 10° E visible
12 Feb 11.7 06:03:26 10° SSE 06:07:30 13° SE 06:11:30 10° E visible
13 Feb 11.7 05:41:22 10° SE 05:44:41 12° ESE 05:47:59 10° ESE visible
14 Feb 11.8 05:19:35 10° SE 05:21:53 11° ESE 05:24:12 10° ESE visible
17 Feb 10.8 06:07:32 10° SSW 06:15:55 31° SE 06:24:06 10° E visible
